sat.trackr.live / text

‹ back to catalog

CELESTIS-17 & SHERPA-FX1

NORAD 47486 · 2021-006CB

PAYLOAD ACTIVE UNKNOWN

§ Identity

Operator
Country
US
Launch date
2021-01-24
Launch site
AFETR
Launch vehicle
Mass (kg)
RCS (m²)

External: N2YO · Heavens-Above · Gunter

§ Orbital elements

Epoch: 2026-09-15T20:02:09.451104Z

Period
93.93 min
Inclination
97.2173°
Eccentricity
0.0005122
Mean motion
15.33000412 rev/d
Perigee alt
463.4 km
Apogee alt
470.4 km
Semi-major
6,845.0 km
B*
1.4964e-4
RAAN
297.7403°
Arg perigee
220.4303°
Mean anomaly
139.6560°
Rev number
31,318

§ Raw data

CELESTIS-17 & SHERPA-FX11 47486U 21006CB  26258.83483161  .00004695  00000+0  14964-3 0  99952 47486  97.2173 297.7403 0005122 220.4303 139.6560 15.33000412313181

JSON: /api/v1/satellites/47486 · /tle

For live sub-satellite position, see the globe view (requires WebGL).

§ Visibility from observer

Set your observer location to see the next 7 days of passes ≥ 10°. The values pass through the URL so the page stays shareable.

No JS? Fill the form by hand. The geolocation button needs JavaScript.